Wakefield, VA

6:18 AM EST on December 13, 2019 (GMT -0500)
Wakefield Municipal

Weather History for KAKQ - November, 2019

Change the Weather History Date:

Tuesday, November 19, 2019

  Actual Average (KJGG) Record (KJGG)
Temperature  
Mean Temperature 44 °F -  
Max Temperature 46 °F 61 °F 111 °F (2007)
Min Temperature 42 °F 37 °F 23 °F (1959)
Degree Days  
Heating Degree Days 21    
Moisture  
Dew Point 42 °F    
Average Humidity 92    
Maximum Humidity 97    
Minimum Humidity 83    
Precipitation  
Precipitation 0.00 in - - ()
Sea Level Pressure  
Sea Level Pressure 29.85 in    
Wind  
Wind Speed 3 mph (WSW)    
Max Wind Speed 7 mph    
Max Gust Speed -    
Visibility 3 miles    
Events Fog    
Averages and records for this station are not official NWS values.
T = Trace of Precipitation, MM = Missing Value Source: NWS Daily Summary

Daily Weather History Graph

Daily Weather History Graph

Search for Another Location

Airport or City:

Astronomy

Nov. 19, 2019 Rise Set
Actual Time 6:50 AM EST 4:55 PM EST
Civil Twilight 6:22 AM EST 5:23 PM EST
Nautical Twilight 5:50 AM EST 5:55 PM EST
Astronomical Twilight 5:20 AM EST 6:26 PM EST
Moon 11:47 PM EST (11/19) 1:00 PM EST (11/19)
Length of Visible Light 11h 01m
Length of Day
10h 05m
Waning Gibbous, 52% of the Moon is Illuminated
Nov 19
Waning Gibbous
Nov 19
Last Quarter
Nov 26
New
Dec 4
First Quarter
Dec 12
Full

Hourly Weather History & Observations

Time (EST) Temp. Windchill Dew Point Humidity Pressure Visibility Wind Dir Wind Speed Gust Speed Precip Events Conditions
12:07 AM 46.0 °F 43.9 °F 45.0 °F 96% 29.80 in 1.2 mi SW 4.6 mph - N/A   Overcast
12:22 AM 46.0 °F 44.8 °F 45.0 °F 96% 29.80 in 2.5 mi SW 3.5 mph - N/A   Overcast
12:54 AM 46.0 °F 43.1 °F 45.0 °F 96% 29.81 in 4.0 mi SW 5.8 mph - N/A   Overcast
1:54 AM 46.0 °F 43.9 °F 44.1 °F 93% 29.81 in 3.0 mi SW 4.6 mph - N/A   Overcast
2:07 AM 46.0 °F 43.9 °F 45.0 °F 96% 29.80 in 2.5 mi SW 4.6 mph - N/A   Overcast
2:54 AM 46.0 °F 43.9 °F 45.0 °F 96% 29.80 in 1.5 mi WSW 4.6 mph - N/A   Overcast
3:22 AM 46.0 °F 42.5 °F 44.1 °F 93% 29.80 in 3.0 mi SW 6.9 mph - N/A   Overcast
3:52 AM 46.4 °F 44.3 °F 44.6 °F 93% 29.80 in 1.8 mi WSW 4.6 mph - N/A   Overcast
3:53 AM 46.0 °F 43.9 °F 44.1 °F 93% 29.81 in 1.8 mi WSW 4.6 mph - N/A   Overcast
4:07 AM 46.0 °F 44.8 °F 44.1 °F 93% 29.80 in 0.5 mi WSW 3.5 mph - N/A Fog Fog
4:38 AM 45.0 °F 42.6 °F 44.1 °F 97% 29.80 in 2.0 mi WNW 4.6 mph - N/A   Overcast
4:54 AM 45.0 °F 43.5 °F 43.0 °F 93% 29.80 in 2.5 mi Variable 3.5 mph - N/A   Overcast
5:19 AM 45.0 °F 43.5 °F 43.0 °F 93% 29.81 in 3.0 mi WSW 3.5 mph - N/A   Overcast
5:54 AM 45.0 °F 43.5 °F 43.0 °F 93% 29.81 in 4.0 mi Variable 3.5 mph - N/A   Overcast
6:03 AM 45.0 °F 42.6 °F 43.0 °F 93% 29.81 in 3.0 mi West 4.6 mph - N/A   Overcast
6:54 AM 44.1 °F 41.5 °F 42.1 °F 93% 29.84 in 3.0 mi SW 4.6 mph - N/A   Overcast
7:25 AM 44.1 °F 42.5 °F 42.1 °F 93% 29.86 in 2.0 mi SW 3.5 mph - N/A   Overcast
7:35 AM 44.1 °F 42.5 °F 42.1 °F 93% 29.86 in 1.5 mi WSW 3.5 mph - N/A   Overcast
7:54 AM 44.1 °F 41.5 °F 42.1 °F 93% 29.87 in 2.0 mi West 4.6 mph - N/A   Overcast
8:13 AM 44.1 °F 40.8 °F 42.1 °F 93% 29.87 in 3.0 mi WSW 5.8 mph - N/A   Overcast
8:29 AM 44.1 °F 42.5 °F 42.1 °F 93% 29.88 in 4.0 mi West 3.5 mph - N/A   Overcast
8:54 AM 44.1 °F 41.5 °F 42.1 °F 93% 29.88 in 2.5 mi West 4.6 mph - N/A   Overcast
9:06 AM 44.1 °F 42.5 °F 42.1 °F 93% 29.87 in 2.0 mi Variable 3.5 mph - N/A   Overcast
9:25 AM 44.1 °F 42.5 °F 42.1 °F 93% 29.88 in 3.0 mi SW 3.5 mph - N/A   Overcast
9:35 AM 44.1 °F 40.8 °F 42.1 °F 93% 29.88 in 2.5 mi SW 5.8 mph - N/A   Overcast
9:54 AM 44.1 °F 42.5 °F 42.1 °F 93% 29.88 in 3.0 mi Variable 3.5 mph - N/A   Overcast
10:13 AM 44.1 °F 42.5 °F 41.0 °F 89% 29.88 in 3.0 mi WNW 3.5 mph - N/A   Overcast
10:54 AM 45.0 °F 43.5 °F 42.1 °F 90% 29.88 in 3.0 mi West 3.5 mph - N/A   Overcast
11:54 AM 45.0 °F 42.6 °F 42.1 °F 90% 29.86 in 3.0 mi NNW 4.6 mph - N/A   Overcast
12:54 PM 46.0 °F - 42.1 °F 86% 29.85 in 3.0 mi Calm Calm - N/A   Overcast
1:01 PM 46.9 °F - 42.1 °F 83% 29.84 in 4.0 mi Variable 3.5 mph - N/A   Haze
1:19 PM 46.0 °F - 42.1 °F 86% 29.84 in 4.0 mi Calm Calm - N/A   Overcast
1:51 PM 46.4 °F 45.2 °F 42.8 °F 87% 29.83 in 6.0 mi North 3.5 mph - N/A   Haze
2:18 PM - - - N/A% - - North - - N/A   Unknown
2:49 PM 46.4 °F 45.2 °F 42.8 °F 87% 29.82 in 5.0 mi Variable 3.5 mph - N/A   Haze
2:54 PM 46.9 °F - 42.1 °F 83% 29.84 in 5.0 mi Variable 3.5 mph - N/A   Haze
3:54 PM 46.9 °F - 42.1 °F 83% 29.85 in 5.0 mi Calm Calm - N/A   Haze
4:38 PM 46.9 °F - 42.1 °F 83% 29.86 in 5.0 mi Calm Calm - N/A   Haze
4:54 PM 46.9 °F - 42.1 °F 83% 29.86 in 4.0 mi Calm Calm - N/A   Haze
5:54 PM 44.1 °F - 42.1 °F 93% 29.88 in 3.0 mi Calm Calm - N/A   Clear
6:22 PM 43.0 °F - 41.0 °F 93% 29.87 in 2.5 mi Calm Calm - N/A   Clear
6:54 PM 43.0 °F - 41.0 °F 93% 29.88 in 2.5 mi Calm Calm - N/A   Clear
7:11 PM 44.1 °F - 42.1 °F 93% 29.88 in 3.0 mi Calm Calm - N/A   Clear
7:18 PM 43.0 °F - 42.1 °F 97% 29.88 in 2.5 mi Calm Calm - N/A   Clear
7:46 PM 44.1 °F - 42.1 °F 93% 29.88 in 3.0 mi Calm Calm - N/A   Clear
7:54 PM 44.1 °F - 42.1 °F 93% 29.89 in 2.5 mi Calm Calm - N/A   Clear
8:54 PM 43.0 °F - 41.0 °F 93% 29.90 in 1.8 mi Calm Calm - N/A   Clear
9:54 PM 42.1 °F - 39.9 °F 92% 29.90 in 1.8 mi Calm Calm - N/A   Clear
10:54 PM 42.1 °F - 41.0 °F 96% 29.90 in 1.8 mi Calm Calm - N/A   Scattered Clouds
11:01 PM 42.1 °F - 41.0 °F 96% 29.89 in 2.0 mi Calm Calm - N/A   Mostly Cloudy
11:16 PM 42.1 °F - 41.0 °F 96% 29.90 in 1.8 mi Calm Calm - N/A   Overcast
11:27 PM 43.0 °F - 41.0 °F 93% 29.90 in 2.0 mi Calm Calm - N/A   Overcast
11:54 PM 43.0 °F - 41.0 °F 93% 29.90 in 2.5 mi Calm Calm - N/A   Overcast